Regional Weather Roundup
Issued by NWS Austin/San Antonio, TX

Home | Current Version | Previous Version | Text Only | Print | Product List | Glossary On
Versions: 1 2 3 4 5 6 7 8 9 10 11 12 13 14 15 16 17 18 19 20 21 22 23 24 25 26 27 28 29 30 31 32 33 34 35 36 37 38 39 40 41 42 43 44 45 46 47 48 49 50
000
ASUS44 KEWX 270102
RWREWX
SOUTH TEXAS REGIONAL WEATHER ROUNDUP
NATIONAL WEATHER SERVICE AUSTIN/SAN ANTONIO TX
800 PM CDT FRI MAY 26 2017

NOTE: "FAIR" INDICATED FEW OR NO CLOUDS BELOW 12,000 FEET WITH NO
SIGNIFICANT WEATHER AND/OR OBSTRUCTIONS TO VISIBILITY.

* - THESE STATIONS ARE NOT NWS OR FAA STATIONS...AND ARE NOT SUBJECT
    TO NWS AND FAA QUALITY CONTROL.

TXZ171-172-183>190-270200-
TEXAS HILL COUNTRY AND EDWARDS PLATEAU

CITY           SKY/WX    TMP DP  RH WIND       PRES   REMARKS
JUNCTION       PTCLDY    93  65  39 S13       29.81R HX  95
*LLANO         MOCLDY    90  72  55 SE7       29.84R HX  96
BURNET         MOCLDY    84  70  62 S7        29.86R
*HORSESHOE BAY NOT AVBL
*KERRVILLE     CLOUDY    84  74  72 SE8       29.86S HX  91
*FREDERICKSBRG MOCLDY    84  69  59 S8        29.86S
*ROCKSPRINGS   PTCLDY    84  72  65 S10       29.90R HAZE
*BOERNE STAGE  MOCLDY    82  70  65 CALM      29.87R
*CASTROVILLE   MOCLDY    87  71  57 E6        29.82S HX  92
HONDO          CLOUDY    87  75  67 E5        29.82R HX  96
*UVALDE        CLOUDY    83  75  76 CALM      29.81S HX  91
DEL RIO        CLOUDY    87  72  60 E7        29.78R HX  93
LAUGHLIN AFB   NOT AVBL
CARRIZO SPRGS  CLEAR     93  70  46 CALM      29.76R HX  99
*EAGLE PASS    NOT AVBL
$$

TXZ173-191>194-202-209-217>225-228-270200-
CENTRAL AND SOUTH CENTRAL TEXAS

CITY           SKY/WX    TMP DP  RH WIND       PRES   REMARKS
GEORGETOWN     PTCLDY    88  70  55 S12       29.81  HX  92
AUSTIN/BERGSTM MOCLDY    88  74  63 S8        29.81R HX  96
AUSTIN/MABRY   PTCLDY    87  71  58 S3        29.83R HX  93
*AUSTIN/EXEC   MOCLDY    84  75  74 CALM      29.83R HX  92
*LAGO VISTA    CLOUDY    84  72  67 S7        29.85S
SAN MARCOS     MOCLDY    86  73  66 SE9       29.82S HX  93
NEW BRAUNFELS  MOCLDY    86  74  67 SE7       29.80R HX  94
RANDOLPH AFB   NOT AVBL
PT SAN ANTONIO NOT AVBL
SAN ANTONIO    CLOUDY    87  71  58 SE9       29.82R HX  93
STINSON FIELD  PTCLDY    89  72  56 SE8       29.79R HX  96
*LA GRANGE     CLEAR     84  76  78 SE8       29.83R HX  93
*GIDDINGS      PTCLDY    83  73  71 S8        29.84S
*GONZALES      PTCLDY    84  78  82 SE13      29.82S HX  94
$$

TXZ163>164-176>182-195>201-210>213-226-227-235-270200-
SOUTHEAST TEXAS

CITY           SKY/WX    TMP DP  RH WIND       PRES   REMARKS
COLLEGE STN    CLEAR     84  74  71 S14       29.83R HX  91
*BRYAN         CLEAR     83  73  72 S15       29.85R
*CALDWELL      NOT AVBL
*CROCKETT      CLEAR     84  73  70 S9        29.86S HX  91
*BRENHAM       CLEAR     84  74  72 S12G17    29.85R HX  92
HUNTSVILLE     PTCLDY    85  72  65 S7        29.86R HX  91
CONROE         CLOUDY    83  74  74 SE12      29.87R
HOUSTON BUSH   CLOUDY    83  74  74 S10       29.88R
HOUSTON HOBBY  CLOUDY    81  74  79 S10       29.87S
*HOUSTON SW AP CLOUDY    80  74  83 S8        29.89S
PEARLAND       CLOUDY    83  75  77 SE14      29.89S HX  90
HOUSTON HOOKS  CLOUDY    83  74  74 SE7       29.86S
ELLINGTON FLD  CLOUDY    82  73  74 SE13      29.90S
SUGAR LAND     CLOUDY    83  75  77 SE13      29.87S HX  90
*HOUSTON EXEC  CLOUDY    82  75  78 S14       29.88R HAZE
*CLEVELAND MUN CLOUDY    80  74  82 S9G17     29.89S HAZE
*WHARTON       MOCLDY    81  73  77 SE12      29.87S
*COLUMBUS      CLOUDY    82  74  78 S12G17    29.86S
*EAGLE LAKE    CLOUDY    82  78  85 S10       29.86R HX  91
$$

TXZ214>216-236>238-270200-
THE UPPER TEXAS COAST

CITY           SKY/WX    TMP DP  RH WIND       PRES   REMARKS
*ORANGE        CLOUDY    80  75  86 S9        29.93S
PORT ARTHUR    CLOUDY    80  73  79 SE13      29.91R
GALVESTON      CLOUDY    82  77  84 S16       29.90R HX  90
ANGLETON       CLOUDY    82  76  81 S16       29.89R
*BAY CITY      CLOUDY    82  76  84 SE8       29.88R
PALACIOS       MOCLDY    79  76  90 SE17      29.87R
$$

TXZ229>234-239>247-270200-
TEXAS COASTAL BEND AND RIO GRANDE PLAINS

CITY           SKY/WX    TMP DP  RH WIND       PRES   REMARKS
VICTORIA       CLOUDY    83  76  79 SE13      29.85R HX  91
*BEEVILLE      PTCLDY    83  78  86 SE13G20   29.83R HX  93
ROCKPORT       PTCLDY    82  76  81 SE15G24   29.83R
*PORT ARANSAS  CLEAR     81  77  88 SE15      29.83S
*PORT LAVACA   CLOUDY    81  79  94 SE7       29.86R
*INGLESIDE     MOCLDY    83  78  86 SE17      29.83R HX  92
CORPUS CHRISTI MOCLDY    82  78  88 SE18      29.81S HX  91
CORPUS NAS     MOCLDY    83  79  88 SE18      29.82R HX  94
*ROBSTOWN      PTCLDY    85  77  77 SE13G21   29.81R HX  96
ALICE          CLEAR     84  77  79 SE18      29.79R HX  94
KINGSVILLE NAS PTCLDY    84  80  88 SE16G25   29.80R HX  97
COTULLA        PTCLDY    97  69  40 SE10      29.75R HX 103
*FAITH RANCH   CLEAR     91  73  55 SW3       29.77S HX 100
LAREDO         CLEAR     95  75  52 SW6       29.76R HX 107
$$

TXZ248>255-270200-
DEEP SOUTH TEXAS

CITY           SKY/WX    TMP DP  RH WIND       PRES   REMARKS
BROWNSVILLE    MOCLDY    84  78  82 SE17      29.81S HX  95
PORT ISABEL    CLOUDY    83  78  85 SE16      29.80S HAZE    HX  93
*SOUTH PADRE   NOT AVBL
HARLINGEN      CLOUDY    85  79  82 SE18      29.79R HX  98
*HEBBRONVILLE  PTCLDY    95  70  44 SE14      29.78R HX 101
MCALLEN        PTCLDY    90  76  63 SE18G24   29.78R HX 101
*WESLACO       CLOUDY    86  76  71 S15G24    29.77R HX  96
FALFURRIAS     CLEAR     89  78  71 E13G18    29.77R HX 102
EDINBURG       PTCLDY    90  74  59 SE10G22   29.78R HX 100
*ZAPATA        PTCLDY    97  72  43 CALM      29.73S HX 105
$$

TXZ213>215-236>238-242>244-246-247-251-254-255-270200-
CMAN STATIONS

STATION/POSITION TIME  TEMP    WIND        PRES    WAVE
                       AIR SEA DIR/SP/G            HT/PER
                 (UTC) (F)     (DEG/KT/KT) (MB)    (FT/S)
SABINE PASS      0030   80 82  150/ 11/ 16 1014.3
SEA RIM ST PARK  0000   79     160/ 12/ 16 1013.1
NORTH JETTY/GLS  0030      80  150/ 13/ 15 1012.0
EAGLE POINT      0030   80 79  170/ 13/ 15 1012.1
MORGANS POINT    0030   80 78  150/  7/ 11 1012.1
MISSION/ARANSAS  0000   81                 1010.0
PORT O`CONNOR    0030   80     130/ 18/ 21 1010.4
PORT ARANSAS     0000   80 82  130/ 18/ 20 1009.8
MALAQUITE BEACH  0030   81 82  110/ 18/ 21 1010.3
BAFFIN BAY       0030   81 84              1009.5
PORT ISABEL      0030   82 81  160/ 11/ 15 1009.4
$$




USA.gov is the U.S. government's official web portal to all federal, state and local government web resources and services.